Pratica di Mare, Italy

9:31 AM CEST on October 22, 2017 (GMT +0200)
Pratica Di Mare Mil

Weather History for LIRE - March, 2013

Change the Weather History Date:

Sunday, March 24, 2013

  Actual Average Record
Temperature  
Mean Temperature 57 °F -  
Max Temperature 69 °F 62 °F 69 °F (2013)
Min Temperature 45 °F 45 °F 35 °F (2002)
Degree Days  
Heating Degree Days 8    
Growing Degree Days 7 (Base 50)    
Moisture  
Dew Point 44 °F    
Average Humidity 66    
Maximum Humidity 94    
Minimum Humidity 18    
Precipitation  
Precipitation 0.00 in 0.08 in - ()
Sea Level Pressure  
Sea Level Pressure 29.59 in    
Wind  
Wind Speed 9 mph ()    
Max Wind Speed 23 mph    
Max Gust Speed 31 mph    
Visibility 9.2 miles    
Events      
Averages and records for this station are not official NWS values.
T = Trace of Precipitation, MM = Missing Value Source: Averaged Metar Reports

Daily Weather History Graph

Daily Weather History Graph

Search for Another Location

Airport or City:

Trip Planner

Search our weather history database for the weather conditions in past years. The results will help you decide how hot, cold, wet, or windy it might be!

Date:

Astronomy

Mar. 24, 2013 Rise Set
Actual Time 6:06 AM CET 6:26 PM CET
Civil Twilight 5:39 AM CET 6:54 PM CET
Nautical Twilight 5:06 AM CET 7:27 PM CET
Astronomical Twilight 4:33 AM CET 8:00 PM CET
Moon 3:35 PM CET (3/24) 4:09 AM CET (3/24)
Length of Visible Light 13h 15m
Length of Day
12h 20m
Waxing Gibbous, 90% of the Moon is Illuminated
Mar 24
Waxing Gibbous
Mar 27
Full
Apr 3
Last Quarter
Apr 10
New
Apr 18
First Quarter

Hourly Weather History & Observations

Time (CET) Temp. Dew Point Humidity Pressure Visibility Wind Dir Wind Speed Gust Speed Precip Events Conditions
12:55 AM 50.0 °F 48.2 °F 94% 29.77 in - NE 6.9 mph - N/A   Clear
1:00 AM 50 °F 48 °F 90% 29.77 in 7 mi NE 6.9 mph - -   Scattered Clouds
1:55 AM 50.0 °F 48.2 °F 94% 29.74 in - NE 4.6 mph - N/A   Clear
2:55 AM 50.0 °F 44.6 °F 82% 29.71 in - NE 8.1 mph - N/A   Clear
3:55 AM 48.2 °F 46.4 °F 93% 29.68 in - NNE 8.1 mph - N/A   Clear
4:00 AM 49 °F 47 °F 89% 29.68 in 9 mi NNE 8.1 mph - -   Scattered Clouds
4:55 AM 48.2 °F 46.4 °F 93% 29.65 in - NE 6.9 mph - N/A   Clear
5:55 AM 50.0 °F 37.4 °F 62% 29.65 in - East 6.9 mph - N/A   Clear
6:55 AM 48.2 °F 35.6 °F 62% 29.62 in - East 6.9 mph - N/A   Clear
7:00 AM 49 °F 36 °F 50% 29.65 in 12 mi East 6.9 mph - -   Scattered Clouds
7:55 AM 51.8 °F 35.6 °F 54% 29.62 in - East 10.4 mph - N/A   Clear
8:55 AM 57.2 °F 41.0 °F 55% 29.62 in - ESE 9.2 mph - N/A   Clear
9:55 AM 59.0 °F 42.8 °F 55% 29.62 in - SE 17.3 mph - N/A   Clear
10:00 AM 59 °F 43 °F 44% 29.62 in 16 mi SE 17.3 mph - -   Scattered Clouds
10:28 AM 66.2 °F 39.2 °F 37% 29.59 in - SE 17.3 mph 28.8 mph N/A   Clear
10:55 AM 66.2 °F 39.2 °F 37% 29.59 in - ESE 18.4 mph - N/A   Clear
1:00 PM 69 °F 35 °F 18% 29.58 in 16 mi SE 20.7 mph - -   Clear
4:00 PM 65 °F 38 °F 26% 29.51 in 12 mi SE 23.0 mph - -   Overcast
4:55 PM 62.6 °F 42.8 °F 48% 29.47 in 6.2 mi SE 18.4 mph 31.1 mph N/A   Scattered Clouds
5:55 PM 62.6 °F 48.2 °F 59% 29.47 in 6.2 mi SE 20.7 mph - N/A   Scattered Clouds
7:00 PM 61 °F 52 °F 64% 29.48 in 7 mi SE 12.7 mph - -   Partly Cloudy
7:55 PM 59.0 °F 51.8 °F 77% 29.47 in 6.2 mi SE 10.4 mph - N/A   Partly Cloudy
8:55 PM 57.2 °F 51.8 °F 82% 29.47 in - East 9.2 mph - N/A   Clear
9:55 PM 57.2 °F 51.8 °F 82% 29.44 in - East 9.2 mph - N/A   Clear
10:00 PM 58 °F 51 °F 72% 29.47 in 7 mi East 9.2 mph - -   Clear
10:55 PM 57.2 °F 53.6 °F 88% 29.44 in 6.2 mi ESE 8.1 mph - N/A   Partly Cloudy